sat.trackr.live / text

‹ back to catalog

GAOFEN-13 01

NORAD 46610 · 2020-071A

PAYLOAD ACTIVE UNKNOWN

§ Identity

Operator
Country
PRC
Launch date
2020-10-11
Launch site
XICLF
Launch vehicle
Mass (kg)
RCS (m²)

Purposes: comms

External: N2YO · Heavens-Above · Gunter

§ Orbital elements

Epoch: 2026-09-20T05:30:22.544640Z

Period
1,436.09 min
Inclination
0.1443°
Eccentricity
0.0059001
Mean motion
1.00272398 rev/d
Perigee alt
35,537.6 km
Apogee alt
36,035.2 km
Semi-major
42,164.6 km
B*
0.0000e+0
RAAN
80.4830°
Arg perigee
121.2035°
Mean anomaly
358.5179°
Rev number
2,187

§ Raw data

GAOFEN-13 011 46610U 20071A   26263.22942760 -.00000367  00000+0  00000+0 0  99932 46610   0.1443  80.4830 0059001 121.2035 358.5179  1.00272398 21871

JSON: /api/v1/satellites/46610 · /tle

For live sub-satellite position, see the globe view (requires WebGL).

§ Visibility from observer

Set your observer location to see the next 7 days of passes ≥ 10°. The values pass through the URL so the page stays shareable.

No JS? Fill the form by hand. The geolocation button needs JavaScript.